User: anonymous   Login
Location: Unspecified
(0.0000°N, 0.0000°E)
Time: 07:41:43
(UTC+00:00)
Language:

COSMOS 2453 - Orbit

View from above orbital plane
View from above orbital plane
View from above satellite
View from above satellite

Ground track
Ground track

The orbit data is extracted from the following two-line orbital elements,

1 35500U 09036C   18116.03840889  .00000004  00000-0 -46279-4 0  9995
2 35500  82.4860 135.4331 0007651 148.1573 211.9974 12.41455368399059
Epoch (UTC): 26 April 2018 00:55:18
Eccentricity: 0.0007651
inclination: 82.4860°
perigee height: 1494 km
apogee height: 1506 km
right ascension of ascending node: 135.4331°
argument of perigee: 148.1573°
revolutions per day: 12.41455368
mean anomaly at epoch: 211.9974°
orbit number at epoch: 39905

The dashed part of the orbit path shows where the satellite is in the earth's shadow,  

DLR